THORAD AGENA D DEB, 42543

Orbit data source: Space-Track

THORAD AGENA D DEB, 42543 is space debris in SSO originally from a launch on Wed, 08 Apr 1970 UTC launched from the Air Force Western Test Range (AFWTR). Debris objects in space refer to the collection of defunct objects orbiting the Earth. Examples of debris include non-operational satellites, rocket bodies, and fragments generated from explosions, collisions, or faulty payload assembly.

Loading next visibility...
Identifier
42543, 1970-025SZ
Orbit
SSO
Country
Flag of USUS
Related business
Manufacturer
Unknown
Mission
Spacecraft
Bus & Motor
Unknown
Mass
Unknown
Launch date (UTC)
1970-04-08 (56 years ago)
Launch vehicle
Unknown
Launch site
Air Force Western Test Range (AFWTR)
Object type
Payload
Rocket body
Debris
Shape & HBR
Unknown shape, 0.1 m
Radar Cross Section
Small (<0.1 m²)

Expand to show TLE details & history
Last TLE update: 2 weeks ago

TLE from 2 weeks ago
0 THORAD AGENA D DEB
1 42543U 70025SZ  26025.84069989  .00000773  00000-0  16492-2 0  9991
2 42543  99.7889  46.9679 0179438 322.4462  36.4238 13.27920106589296
Epoch: 2026-01-25T20:10Z
TLE epoch observation values (Epoch: 2026-01-25T20:10:36.470Z)
Latitude
0.00001°
Longitude
-20.82909°
Altitude
1,049.466 km
Speed
7.379 km/s
True Right ascension
03h 07m 52s
True Declination
0° 00' 00"
Sunlit
Object was in daylight at epoch
Visualization orbit readout
Latitude
Unknown
Longitude
Unknown
Altitude
Unknown
Speed
Unknown
Apparent Right ascension
Unknown
Apparent Declination
Unknown
Sunlit
N/A
Visualization observer readout
Local Sidereal Time
14:51:37
Azimuth
Unknown
Elevation
Unknown
Doppler factor
Unknown
Orbital elements
Apogee altitude
1,287.071 km
Perigee altitude
1,016.834 km
Semi-major axis
7,530.09 km
Eccentricity
0.01794
Inclination
99.7889°
RAAN
46.9679°
Arg. of periapsis
322.4462°
True anomaly
37.667°
Mean anomaly
36.4238°
Eccentric anomaly
37.04315°
Mean motion
3.32157 °/min
Orbital period
108.38 mins
BSTAR
0.0016492

Documentation

Showing up to 5 results
|